Location: Home
(42.5358°N, 72.7383°W)
Time: 01:14:39
(UTC-05:00)

Vanguard 1 - Pass Details

Date: 08 December 2021
Orbit: 652 x 3830 km, 34.2° (Epoch: 21 January)

Event Time Altitude Azimuth Distance (km) Brightness Sun altitude
Rises 18:36:40 0° 168° (SSE) 5,802 14.0 -24.8°
Reaches altitude 10° 18:44:00 10° 143° (SE) 5,541 13.6 -26.1°
Enters shadow 18:48:19 13° 128° (SE) 5,688 13.5 -26.9°
Maximum altitude 18:50:11 13° 122° (ESE) 5,811 - -27.3°
Drops below altitude 10° 18:57:13 10° 101° (E) 6,505 - -28.5°
Sets 19:07:49 0° 80° (E) 7,921 - -30.5°
